User: anonymous   Login
Location: Prairie State College
(41.5244°N, 87.6382°W)
Time: 10:56:16
(UTC-06:00)
Language:

MSX - Orbit

View from above orbital plane
View from above orbital plane
View from above satellite
View from above satellite

Ground track
Ground track

The orbit data is extracted from the following two-line orbital elements,

1 23851U 96024A   17018.74840629 0.00000000  00000-0  00000-0 0    00
2 23851  98.6738  32.6878 0009504  27.2271 332.7727 13.98043583    00
Epoch (UTC): 18 January 2017 17:57:42
Eccentricity: 0.0009504
inclination: 98.6738°
perigee height: 893 km
apogee height: 907 km
right ascension of ascending node: 32.6878°
argument of perigee: 27.2271°
revolutions per day: 13.98043583
mean anomaly at epoch: 332.7727°
orbit number at epoch: 0

The dashed part of the orbit path shows where the satellite is in the earth's shadow,  

DLR